Starlink 30145

operational
NORAD ID: 57496 Int'l Des: 2023-113 Owner: SPXS Country: US Constellation: starlink
LEOCIRCULAR

Starlink 30145について

説明を読み込み中...

リアルタイム位置

3D地球を読み込み中...

次回通過

高度履歴

Altitude vs Time

uPlot chart will show altitude changes over time

軌道要素

1 57496U 23113B 25307.81516907 .00000343 00000-0 40449-4 0 9990
2 57496 43.0056 341.4553 0001287 273.9564 86.1132 15.02532600124619
Epoch: Nov 3, 2025 • Age: 20 hours

現在のステータス

高度 569.8 km
速度 7.58 km/s
衛星直下点 -38.79°S, 6.47°W
打ち上げ日 Aug 7, 2023
運用期間 2.2 years
タイプ internet

技術仕様

分類 Payload
質量 730.00 kg
乾燥質量 700.00 kg
総質量 730.00 kg
長さ 0.30 m
直径 4.10 m
スパン 29.00 m
形状 Box + pan
製造者 SPXS
バスタイプ Starlink V2M
フェーズステータス In Orbit
所有者/国 SPXS/US

大規模コンステレーション

Loading constellations...